• In Deutschland
  • Länderverzeichnis
  • Für 7 Tage
  • Wassertemperatur
  • Satellitenkarten
  • Wetterkarte
  • Widgets
  • user-avatar
    Anmelden

    Stündliche Wetter Nova Prata

    Heute, 17 Januar, Mittwoch

    Zeit Temperatur Niederschläge Wind Luftdruck Luftfeuchtigkeit
    00:00 +20°C° 0 mm 1 m/S 701 mmHg 93%
    01:00 +19°C° 0 mm 1 m/S 700 mmHg 94%
    02:00 +19°C° 0 mm 1 m/S 700 mmHg 95%
    03:00 +19°C° 0 mm 1 m/S 699 mmHg 96%
    04:00 +19°C° 0 mm 1 m/S 700 mmHg 96%
    05:00 +19°C° 0 mm 1 m/S 700 mmHg 96%
    06:00 +19°C° 0 mm 1 m/S 700 mmHg 96%
    07:00 +21°C° 0 mm 2 m/S 700 mmHg 86%
    08:00 +24°C° 0 mm 2 m/S 701 mmHg 77%
    09:00 +27°C° 0 mm 2 m/S 701 mmHg 67%
    10:00 +28°C° 0,3 mm 2 m/S 701 mmHg 65%
    11:00 +29°C° 0,3 mm 2 m/S 701 mmHg 62%
    12:00 +30°C° 0,3 mm 1 m/S 701 mmHg 60%
    13:00 +30°C° 0,9 mm 1 m/S 700 mmHg 64%
    14:00 +30°C° 0,9 mm 1 m/S 700 mmHg 68%
    15:00 +29°C° 0,9 mm 1 m/S 699 mmHg 72%
    16:00 +28°C° 1,3 mm 1 m/S 699 mmHg 77%
    17:00 +27°C° 1,3 mm 1 m/S 698 mmHg 82%
    18:00 +24°C° 1,3 mm 0 m/S 698 mmHg 87%
    19:00 +25°C° 0,4 mm 1 m/S 698 mmHg 90%
    20:00 +24°C° 0,4 mm 1 m/S 698 mmHg 93%
    21:00 +23°C° 0,4 mm 1 m/S 698 mmHg 96%
    22:00 +22°C° 0,2 mm 1 m/S 698 mmHg 96%
    23:00 +21°C° 0,2 mm 2 m/S 699 mmHg 97%

    Morgen, 18 Januar, Donnerstag

    Zeit Temperatur Niederschläge Wind Luftdruck Luftfeuchtigkeit
    00:00 +21°C° 0,2 mm 2 m/S 699 mmHg 97%
    01:00 +21°C° 0,1 mm 2 m/S 698 mmHg 97%
    02:00 +20°C° 0,1 mm 2 m/S 698 mmHg 97%
    03:00 +20°C° 0,1 mm 2 m/S 697 mmHg 98%
    04:00 +20°C° 0 mm 2 m/S 698 mmHg 98%
    05:00 +20°C° 0 mm 2 m/S 698 mmHg 98%
    06:00 +20°C° 0 mm 2 m/S 698 mmHg 98%
    07:00 +21°C° 0,2 mm 2 m/S 698 mmHg 93%
    08:00 +24°C° 0,2 mm 2 m/S 699 mmHg 88%
    09:00 +26°C° 0,2 mm 2 m/S 699 mmHg 83%
    10:00 +26°C° 0,8 mm 2 m/S 699 mmHg 81%
    11:00 +26°C° 0,8 mm 2 m/S 699 mmHg 80%
    12:00 +27°C° 0,8 mm 2 m/S 699 mmHg 79%
    13:00 +27°C° 0,7 mm 2 m/S 699 mmHg 78%
    14:00 +27°C° 0,7 mm 2 m/S 698 mmHg 77%
    15:00 +28°C° 0,7 mm 2 m/S 698 mmHg 76%
    16:00 +27°C° 0,7 mm 2 m/S 698 mmHg 82%
    17:00 +26°C° 0,7 mm 2 m/S 698 mmHg 88%
    18:00 +25°C° 0,7 mm 1 m/S 698 mmHg 94%
    19:00 +24°C° 0,2 mm 1 m/S 699 mmHg 96%
    20:00 +23°C° 0,2 mm 1 m/S 699 mmHg 97%
    21:00 +22°C° 0,2 mm 1 m/S 699 mmHg 98%
    22:00 +21°C° 0 mm 1 m/S 699 mmHg 99%
    23:00 +21°C° 0 mm 1 m/S 700 mmHg 99%

    übermorgen, 19 Januar, Freitag

    Zeit Temperatur Niederschläge Wind Luftdruck Luftfeuchtigkeit
    00:00 +20°C° 0 mm 1 m/S 700 mmHg 99%
    01:00 +20°C° 0 mm 1 m/S 699 mmHg 99%
    02:00 +20°C° 0 mm 1 m/S 699 mmHg 99%
    03:00 +20°C° 0 mm 1 m/S 699 mmHg 99%
    04:00 +20°C° 0 mm 1 m/S 699 mmHg 99%
    05:00 +20°C° 0 mm 1 m/S 699 mmHg 99%
    06:00 +20°C° 0 mm 1 m/S 700 mmHg 98%
    07:00 +21°C° 0 mm 1 m/S 700 mmHg 95%
    08:00 +22°C° 0 mm 1 m/S 701 mmHg 91%
    09:00 +23°C° 0 mm 1 m/S 701 mmHg 87%
    10:00 +25°C° 0 mm 1 m/S 701 mmHg 75%
    11:00 +27°C° 0 mm 2 m/S 701 mmHg 63%
    12:00 +29°C° 0 mm 2 m/S 702 mmHg 51%
    13:00 +30°C° 0 mm 2 m/S 701 mmHg 47%
    14:00 +30°C° 0 mm 2 m/S 701 mmHg 42%
    15:00 +31°C° 0 mm 2 m/S 700 mmHg 38%
    16:00 +30°C° 0 mm 3 m/S 700 mmHg 42%
    17:00 +29°C° 0 mm 3 m/S 700 mmHg 45%
    18:00 +28°C° 0 mm 3 m/S 699 mmHg 49%
    19:00 +26°C° 0 mm 2 m/S 700 mmHg 56%
    20:00 +23°C° 0 mm 2 m/S 700 mmHg 63%
    21:00 +20°C° 0 mm 2 m/S 700 mmHg 70%
    22:00 +19°C° 0 mm 2 m/S 700 mmHg 75%
    23:00 +18°C° 0 mm 1 m/S 699 mmHg 80%

    20 Januar, Samstag

    Zeit Temperatur Niederschläge Wind Luftdruck Luftfeuchtigkeit
    00:00 +16°C° 0 mm 1 m/S 699 mmHg 85%
    01:00 +15°C° 0 mm 1 m/S 699 mmHg 87%
    02:00 +14°C° 0 mm 1 m/S 699 mmHg 90%
    03:00 +14°C° 0 mm 1 m/S 698 mmHg 92%
    04:00 +14°C° 0 mm 1 m/S 698 mmHg 93%
    05:00 +14°C° 0 mm 1 m/S 698 mmHg 94%
    06:00 +13°C° 0 mm 1 m/S 698 mmHg 95%
    07:00 +18°C° 0 mm 1 m/S 699 mmHg 82%
    08:00 +20°C° 0 mm 2 m/S 699 mmHg 69%
    09:00 +24°C° 0 mm 2 m/S 700 mmHg 57%
    10:00 +26°C° 0 mm 2 m/S 700 mmHg 49%
    11:00 +29°C° 0 mm 1 m/S 700 mmHg 40%
    12:00 +31°C° 0 mm 1 m/S 700 mmHg 32%
    13:00 +32°C° 0 mm 1 m/S 700 mmHg 31%
    14:00 +33°C° 0 mm 1 m/S 699 mmHg 30%
    15:00 +33°C° 0 mm 1 m/S 699 mmHg 29%
    16:00 +32°C° 0 mm 1 m/S 698 mmHg 33%
    17:00 +31°C° 0 mm 1 m/S 698 mmHg 37%
    18:00 +30°C° 0 mm 1 m/S 698 mmHg 41%
    19:00 +27°C° 0 mm 2 m/S 698 mmHg 51%
    20:00 +24°C° 0 mm 2 m/S 698 mmHg 61%
    21:00 +20°C° 0 mm 2 m/S 698 mmHg 70%
    22:00 +20°C° 0 mm 2 m/S 698 mmHg 74%
    23:00 +20°C° 0 mm 2 m/S 698 mmHg 79%

    21 Januar, Sonntag

    Zeit Temperatur Niederschläge Wind Luftdruck Luftfeuchtigkeit
    00:00 +19°C° 0 mm 3 m/S 699 mmHg 83%
    01:00 +19°C° 0 mm 2 m/S 698 mmHg 83%
    02:00 +18°C° 0 mm 2 m/S 698 mmHg 84%
    03:00 +18°C° 0 mm 2 m/S 697 mmHg 84%
    04:00 +17°C° 0 mm 2 m/S 697 mmHg 84%
    05:00 +17°C° 0 mm 2 m/S 697 mmHg 85%
    06:00 +16°C° 0 mm 2 m/S 697 mmHg 86%
    07:00 +19°C° 0 mm 2 m/S 698 mmHg 79%
    08:00 +21°C° 0 mm 2 m/S 698 mmHg 73%
    09:00 +24°C° 0 mm 2 m/S 699 mmHg 67%
    10:00 +27°C° 0,1 mm 2 m/S 699 mmHg 60%
    11:00 +29°C° 0,1 mm 1 m/S 699 mmHg 54%
    12:00 +32°C° 0,1 mm 1 m/S 699 mmHg 47%
    13:00 +32°C° 0,1 mm 1 m/S 698 mmHg 47%
    14:00 +31°C° 0,1 mm 1 m/S 698 mmHg 46%
    15:00 +31°C° 0,1 mm 1 m/S 697 mmHg 45%
    16:00 +29°C° 0 mm 1 m/S 697 mmHg 51%
    17:00 +28°C° 0 mm 1 m/S 697 mmHg 57%
    18:00 +27°C° 0 mm 1 m/S 696 mmHg 63%
    19:00 +25°C° 0 mm 1 m/S 697 mmHg 67%
    20:00 +24°C° 0 mm 2 m/S 697 mmHg 72%
    21:00 +23°C° 0 mm 2 m/S 697 mmHg 76%
    22:00 +21°C° 0 mm 2 m/S 697 mmHg 78%
    23:00 +21°C° 0 mm 2 m/S 697 mmHg 81%

    22 Januar, Montag

    Zeit Temperatur Niederschläge Wind Luftdruck Luftfeuchtigkeit
    00:00 +20°C° 0 mm 3 m/S 697 mmHg 84%
    01:00 +20°C° 0 mm 2 m/S 697 mmHg 86%
    02:00 +20°C° 0 mm 2 m/S 696 mmHg 88%
    03:00 +19°C° 0 mm 2 m/S 696 mmHg 90%
    04:00 +19°C° 0 mm 2 m/S 696 mmHg 90%
    05:00 +19°C° 0 mm 2 m/S 696 mmHg 91%
    06:00 +19°C° 0 mm 2 m/S 697 mmHg 91%
    07:00 +21°C° 0 mm 2 m/S 697 mmHg 83%
    08:00 +24°C° 0 mm 2 m/S 697 mmHg 75%
    09:00 +26°C° 0 mm 3 m/S 698 mmHg 67%
    10:00 +27°C° 0,5 mm 2 m/S 698 mmHg 66%
    11:00 +28°C° 0,5 mm 2 m/S 697 mmHg 65%
    12:00 +29°C° 0,5 mm 2 m/S 697 mmHg 63%
    13:00 +29°C° 1,2 mm 2 m/S 697 mmHg 69%
    14:00 +29°C° 1,2 mm 1 m/S 696 mmHg 76%
    15:00 +28°C° 1,2 mm 1 m/S 696 mmHg 82%
    16:00 +27°C° 1,4 mm 1 m/S 696 mmHg 86%
    17:00 +25°C° 1,4 mm 0 m/S 696 mmHg 89%
    18:00 +24°C° 1,4 mm 0 m/S 696 mmHg 93%
    19:00 +22°C° 0,9 mm 0 m/S 696 mmHg 94%
    20:00 +21°C° 0,9 mm 0 m/S 696 mmHg 95%
    21:00 +20°C° 0,9 mm 0 m/S 696 mmHg 95%
    22:00 +22°C° 0 mm 1 m/S 696 mmHg 96%
    23:00 +21°C° 0 mm 1 m/S 696 mmHg 97%
    Mehr zeigen